Rotterdam, Netherlands

9:07 AM CEST on September 20, 2017 (GMT +0200)
Rotterdam

Weather History for EHRD - September, 2013

Change the Weather History Date:

Saturday, September 28, 2013

  Actual Average Record
Temperature  
Mean Temperature 54 °F -  
Max Temperature 64 °F 57 °F 73 °F (2011)
Min Temperature 44 °F 45 °F 39 °F (1997)
Degree Days  
Heating Degree Days 11    
Growing Degree Days 4 (Base 50)    
Moisture  
Dew Point 43 °F    
Average Humidity 69    
Maximum Humidity 87    
Minimum Humidity 47    
Precipitation  
Precipitation 0.00 in - - ()
Sea Level Pressure  
Sea Level Pressure 29.92 in    
Wind  
Wind Speed 8 mph ()    
Max Wind Speed 17 mph    
Max Gust Speed -    
Visibility 7.3 miles    
Events      
Averages and records for this station are not official NWS values.
T = Trace of Precipitation, MM = Missing Value Source: Averaged Metar Reports

Daily Weather History Graph

Daily Weather History Graph

Search for Another Location

Airport or City:

Trip Planner

Search our weather history database for the weather conditions in past years. The results will help you decide how hot, cold, wet, or windy it might be!

Date:

Astronomy

Sep. 28, 2013 Rise Set
Actual Time 7:38 AM CEST 7:26 PM CEST
Civil Twilight 7:04 AM CEST 7:59 PM CEST
Nautical Twilight 6:25 AM CEST 8:39 PM CEST
Astronomical Twilight 5:44 AM CEST 9:19 PM CEST
Moon 12:33 AM CEST (9/28) 4:10 PM CEST (9/28)
Length of Visible Light 12h 55m
Length of Day
11h 48m
Last Quarter, 38% of the Moon is Illuminated
Sep 28
Last Quarter
Oct 5
New
Oct 12
First Quarter
Oct 19
Full
Oct 27
Last Quarter

Hourly Weather History & Observations

Time (CEST) Temp. Windchill Dew Point Humidity Pressure Visibility Wind Dir Wind Speed Gust Speed Precip Events Conditions
12:25 AM 46.4 °F 44.3 °F 41.0 °F 81% 30.01 in 6.2 mi ENE 4.6 mph - N/A   Unknown
12:55 AM 44.6 °F 43.1 °F 41.0 °F 87% 30.01 in 6.2 mi East 3.5 mph - N/A   Unknown
1:25 AM 44.6 °F 40.7 °F 41.0 °F 87% 29.98 in 6.2 mi ENE 6.9 mph - N/A   Unknown
1:55 AM 46.4 °F 43.5 °F 41.0 °F 81% 29.98 in 6.2 mi East 5.8 mph - N/A   Unknown
2:00 AM 46 °F - 40 °F 74% 29.99 in 19 mi East 6.7 mph - -   Partly Cloudy
2:25 AM 46.4 °F 42.9 °F 41.0 °F 81% 29.98 in 6.2 mi East 6.9 mph - N/A   Unknown
2:55 AM 48.2 °F - 41.0 °F 76% 29.98 in 6.2 mi East 8.1 mph - N/A   Unknown
3:25 AM 48.2 °F - 41.0 °F 76% 29.98 in 6.2 mi East 5.8 mph - N/A   Unknown
3:55 AM 46.4 °F 44.3 °F 41.0 °F 81% 29.98 in 6.2 mi East 4.6 mph - N/A   Unknown
4:25 AM 46.4 °F 43.5 °F 41.0 °F 81% 29.95 in 6.2 mi East 5.8 mph - N/A   Unknown
4:55 AM 46.4 °F 42.9 °F 42.8 °F 87% 29.95 in 6.2 mi East 6.9 mph - N/A   Unknown
5:00 AM 46 °F - 42 °F 80% 29.96 in 17 mi East 8.9 mph - -  
5:25 AM 46.4 °F 42.4 °F 42.8 °F 87% 29.95 in 6.2 mi East 8.1 mph - N/A   Unknown
5:55 AM 46.4 °F 41.9 °F 42.8 °F 87% 29.95 in 6.2 mi East 9.2 mph - N/A   Unknown
6:25 AM 46.4 °F 42.4 °F 41.0 °F 81% 29.92 in 6.2 mi East 8.1 mph - N/A   Unknown
6:55 AM 46.4 °F 42.4 °F 41.0 °F 81% 29.92 in 6.2 mi East 8.1 mph - N/A   Unknown
7:25 AM 46.4 °F 41.9 °F 41.0 °F 81% 29.92 in 6.2 mi East 9.2 mph - N/A   Unknown
7:55 AM 46.4 °F 42.4 °F 41.0 °F 81% 29.92 in 6.2 mi East 8.1 mph - N/A   Unknown
8:00 AM 46 °F - 42 °F 79% 29.94 in 14 mi East 8.9 mph - -   Partly Cloudy
8:25 AM 46.4 °F 42.4 °F 41.0 °F 81% 29.92 in 6.2 mi East 8.1 mph - N/A   Unknown
8:55 AM 48.2 °F - 42.8 °F 82% 29.92 in 6.2 mi East 5.8 mph - N/A   Unknown
9:25 AM 50.0 °F - 42.8 °F 76% 29.92 in 6.2 mi East 8.1 mph - N/A   Unknown
9:55 AM 51.8 °F - 42.8 °F 71% 29.95 in 6.2 mi East 10.4 mph - N/A   Unknown
10:25 AM 53.6 °F - 42.8 °F 67% 29.95 in 6.2 mi East 10.4 mph - N/A   Unknown
10:55 AM 53.6 °F - 42.8 °F 67% 29.92 in 6.2 mi East 11.5 mph - N/A   Unknown
11:00 AM 55 °F - 44 °F 56% 29.94 in 22 mi ENE 11.2 mph - -   Partly Cloudy
11:25 AM 55.4 °F - 44.6 °F 67% 29.92 in 6.2 mi East 12.7 mph - N/A   Unknown
11:55 AM 57.2 °F - 44.6 °F 63% 29.92 in 6.2 mi ENE 11.5 mph - N/A   Unknown
12:25 PM 59.0 °F - 42.8 °F 55% 29.92 in 6.2 mi East 10.4 mph - N/A   Unknown
12:55 PM 59.0 °F - 44.6 °F 59% 29.92 in 6.2 mi East 13.8 mph - N/A   Unknown
1:25 PM 60.8 °F - 46.4 °F 59% 29.92 in 6.2 mi East 13.8 mph - N/A   Unknown
1:55 PM 62.6 °F - 46.4 °F 55% 29.92 in 6.2 mi East 12.7 mph - N/A   Unknown
2:00 PM 62 °F - 47 °F 47% 29.92 in 16 mi East 13.4 mph - -   Partly Cloudy
2:25 PM 62.6 °F - 48.2 °F 59% 29.89 in 6.2 mi East 16.1 mph - N/A   Unknown
2:55 PM 62.6 °F - 46.4 °F 55% 29.89 in 6.2 mi East 16.1 mph - N/A   Unknown
3:25 PM 62.6 °F - 46.4 °F 55% 29.89 in 6.2 mi East 17.3 mph - N/A   Unknown
3:55 PM 62.6 °F - 46.4 °F 55% 29.89 in 6.2 mi East 15.0 mph - N/A   Unknown
4:25 PM 62.6 °F - 46.4 °F 55% 29.86 in 6.2 mi East 15.0 mph - N/A   Unknown
4:55 PM 62.6 °F - 46.4 °F 55% 29.86 in 6.2 mi East 13.8 mph - N/A   Unknown
5:00 PM 63 °F - 48 °F 47% 29.87 in 14 mi East 11.2 mph - -  
5:25 PM 62.6 °F - 46.4 °F 55% 29.86 in 6.2 mi East 17.3 mph - N/A   Unknown
5:55 PM 62.6 °F - 42.8 °F 48% 29.86 in 6.2 mi ENE 16.1 mph - N/A   Unknown
6:25 PM 60.8 °F - 42.8 °F 52% 29.86 in 6.2 mi East 15.0 mph - N/A   Unknown
6:55 PM 59.0 °F - 42.8 °F 55% 29.86 in 6.2 mi East 12.7 mph - N/A   Unknown
7:25 PM 57.2 °F - 41.0 °F 55% 29.86 in 6.2 mi East 11.5 mph - N/A   Unknown
7:55 PM 55.4 °F - 42.8 °F 63% 29.86 in 6.2 mi ENE 10.4 mph - N/A   Unknown
8:00 PM 56 °F - 43 °F 50% 29.88 in 28 mi East 8.9 mph - -   Partly Cloudy
8:25 PM 55.4 °F - 42.8 °F 63% 29.86 in 6.2 mi ENE 11.5 mph - N/A   Unknown
8:55 PM 55.4 °F - 42.8 °F 63% 29.86 in 6.2 mi ENE 11.5 mph - N/A   Unknown
9:25 PM 53.6 °F - 42.8 °F 67% 29.86 in 6.2 mi ENE 12.7 mph - N/A   Unknown
9:55 PM 51.8 °F - 44.6 °F 76% 29.86 in 6.2 mi ENE 11.5 mph - N/A   Unknown
10:25 PM 51.8 °F - 44.6 °F 76% 29.89 in 6.2 mi ENE 10.4 mph - N/A   Unknown
10:55 PM 51.8 °F - 46.4 °F 82% 29.89 in 6.2 mi ENE 11.5 mph - N/A   Unknown
11:00 PM 53 °F - 46 °F 69% 29.89 in 18 mi ENE 11.2 mph - -  
11:25 PM 51.8 °F - 46.4 °F 82% 29.86 in 6.2 mi ENE 11.5 mph - N/A   Unknown
11:55 PM 51.8 °F - 46.4 °F 82% 29.86 in 6.2 mi ENE 12.7 mph - N/A   Unknown